Orbital Elements at Epoch 2459200.5 (2020-Dec-17.0) TDB
Reference: JPL 22 (heliocentric ecliptic J2000)
Element | Value | Uncertainty (1-sigma) | Units |
e | .263747227108901 | 3.2006e-08 | |
a | 2.37999651814987 | 1.1079e-08 | au |
q | 1.752279035959003 | 7.9694e-08 | au |
i | 12.30006281665274 | 4.2075e-06 | deg |
node | 116.8308698197311 | 1.9971e-05 | deg |
peri | 204.409615189268 | 2.1787e-05 | deg |
M | 203.7783548228963 | 1.0925e-05 | deg |
tp | 2459782.471364105293 (2022-Jul-21.97136411) | 4.3271e-05 | TDB |
period | 1341.105394456643 3.67 | 9.3644e-06 2.564e-08 | d yr |
n | .2684352784561397 | 1.8744e-09 | deg/d |
Q | 3.007714000340737 | 1.4001e-08 | au |
|
| | Orbit Determination Parameters
Additional Information
|